When you browse on this site, cookies collect data to enhance your experience and personalize the content and advertising you see.
Visit our Privacy Policy to learn more. By continuing to use the site, you agree to this use of cookies and data.
  • In Germany
  • List of Countries
  • For 7 days
  • Water Temperature
  • Weather Map
  • Weather Widgets
  • user-avatar
    Login

    Hourly Weather Kashina

    Today, 24 February, Monday

    Time Temperature Precipitation Wind Pressure Humidity
    00:00 -8°C° 0 mm 2 mps 743 mmHg 94%
    01:00 -9°C° 0 mm 3 mps 743 mmHg 93%
    02:00 -10°C° 0 mm 3 mps 742 mmHg 91%
    03:00 -10°C° 0 mm 3 mps 742 mmHg 89%
    04:00 -10°C° 0 mm 3 mps 741 mmHg 91%
    05:00 -11°C° 0 mm 4 mps 741 mmHg 89%
    06:00 -12°C° 0 mm 5 mps 740 mmHg 86%
    07:00 -12°C° 0 mm 5 mps 739 mmHg 84%
    08:00 -11°C° 0 mm 5 mps 739 mmHg 85%
    09:00 -10°C° 0 mm 6 mps 738 mmHg 85%
    10:00 -9°C° 0 mm 6 mps 738 mmHg 84%
    11:00 -9°C° 0 mm 6 mps 738 mmHg 85%
    12:00 -8°C° 0 mm 6 mps 737 mmHg 86%
    13:00 -8°C° 0 mm 6 mps 737 mmHg 87%
    14:00 -8°C° 0.2 mm 6 mps 736 mmHg 89%
    15:00 -8°C° 0.2 mm 6 mps 736 mmHg 90%
    16:00 -9°C° 0.2 mm 6 mps 735 mmHg 91%
    17:00 -9°C° 0.2 mm 6 mps 735 mmHg 91%
    18:00 -9°C° 0.2 mm 6 mps 735 mmHg 91%
    19:00 -9°C° 0.2 mm 6 mps 734 mmHg 91%
    20:00 -8°C° 0 mm 5 mps 734 mmHg 90%
    21:00 -8°C° 0 mm 5 mps 734 mmHg 89%
    22:00 -8°C° 0 mm 4 mps 734 mmHg 88%
    23:00 -8°C° 0 mm 4 mps 734 mmHg 89%

    Tomorrow, 25 February, Tuesday

    Time Temperature Precipitation Wind Pressure Humidity
    00:00 -7°C° 0 mm 3 mps 734 mmHg 90%
    01:00 -8°C° 0 mm 3 mps 734 mmHg 90%
    02:00 -8°C° 0 mm 3 mps 735 mmHg 91%
    03:00 -8°C° 0 mm 2 mps 735 mmHg 93%
    04:00 -8°C° 0 mm 2 mps 736 mmHg 94%
    05:00 -8°C° 0 mm 2 mps 736 mmHg 94%
    06:00 -8°C° 0 mm 2 mps 736 mmHg 94%
    07:00 -8°C° 0 mm 2 mps 737 mmHg 95%
    08:00 -6°C° 0 mm 2 mps 737 mmHg 93%
    09:00 -5°C° 0 mm 2 mps 737 mmHg 90%
    10:00 -3°C° 0 mm 2 mps 737 mmHg 88%
    11:00 -2°C° 0 mm 2 mps 737 mmHg 87%
    12:00 -2°C° 0 mm 2 mps 737 mmHg 85%
    13:00 -1°C° 0 mm 3 mps 738 mmHg 83%
    14:00 -2°C° 0 mm 3 mps 737 mmHg 85%
    15:00 -2°C° 0 mm 3 mps 737 mmHg 87%
    16:00 -4°C° 0 mm 3 mps 737 mmHg 89%
    17:00 -4°C° 0 mm 3 mps 736 mmHg 91%
    18:00 -5°C° 0 mm 3 mps 736 mmHg 93%
    19:00 -7°C° 0 mm 4 mps 736 mmHg 95%
    20:00 -5°C° 0 mm 4 mps 736 mmHg 95%
    21:00 -5°C° 0 mm 3 mps 736 mmHg 95%
    22:00 -4°C° 0 mm 3 mps 735 mmHg 95%
    23:00 -4°C° 0 mm 4 mps 735 mmHg 94%

    Day after tomorrow, 26 February, Wednesday

    Time Temperature Precipitation Wind Pressure Humidity
    00:00 -4°C° 0 mm 4 mps 734 mmHg 94%
    01:00 -5°C° 0 mm 5 mps 734 mmHg 93%
    02:00 -5°C° 0.1 mm 5 mps 733 mmHg 93%
    03:00 -5°C° 0.1 mm 5 mps 732 mmHg 93%
    04:00 -5°C° 0.1 mm 5 mps 732 mmHg 93%
    05:00 -5°C° 0 mm 5 mps 731 mmHg 93%
    06:00 -5°C° 0 mm 5 mps 730 mmHg 94%
    07:00 -6°C° 0 mm 5 mps 729 mmHg 95%
    08:00 -6°C° 0.4 mm 5 mps 728 mmHg 95%
    09:00 -6°C° 0.4 mm 5 mps 728 mmHg 95%
    10:00 -6°C° 0.4 mm 5 mps 727 mmHg 95%
    11:00 -5°C° 1.3 mm 5 mps 726 mmHg 95%
    12:00 -4°C° 1.3 mm 4 mps 725 mmHg 95%
    13:00 -3°C° 1.3 mm 4 mps 725 mmHg 95%
    14:00 -3°C° 0.4 mm 4 mps 724 mmHg 95%
    15:00 -2°C° 0.4 mm 3 mps 724 mmHg 95%
    16:00 -2°C° 0.4 mm 3 mps 723 mmHg 95%
    17:00 -2°C° 0.3 mm 2 mps 723 mmHg 96%
    18:00 -1°C° 0.3 mm 1 mps 723 mmHg 97%
    19:00 -1°C° 0.3 mm 1 mps 723 mmHg 97%
    20:00 -3°C° 0.1 mm 2 mps 723 mmHg 97%
    21:00 -3°C° 0.1 mm 2 mps 723 mmHg 96%
    22:00 -4°C° 0.1 mm 3 mps 723 mmHg 95%
    23:00 -4°C° 0 mm 4 mps 724 mmHg 93%

    27 February, Thursday

    Time Temperature Precipitation Wind Pressure Humidity
    00:00 -5°C° 0 mm 5 mps 724 mmHg 91%
    01:00 -4°C° 0 mm 5 mps 724 mmHg 89%
    02:00 -4°C° 0 mm 5 mps 725 mmHg 88%
    03:00 -4°C° 0 mm 6 mps 726 mmHg 88%
    04:00 -4°C° 0 mm 6 mps 727 mmHg 88%
    05:00 -4°C° 0 mm 6 mps 728 mmHg 87%
    06:00 -5°C° 0 mm 6 mps 729 mmHg 86%
    07:00 -6°C° 0 mm 7 mps 730 mmHg 85%
    08:00 -5°C° 0 mm 6 mps 731 mmHg 82%
    09:00 -6°C° 0 mm 6 mps 732 mmHg 79%
    10:00 -6°C° 0 mm 6 mps 732 mmHg 77%
    11:00 -5°C° 0 mm 5 mps 733 mmHg 74%
    12:00 -4°C° 0 mm 5 mps 733 mmHg 72%
    13:00 -2°C° 0 mm 4 mps 734 mmHg 69%
    14:00 -2°C° 0 mm 4 mps 734 mmHg 74%
    15:00 -2°C° 0 mm 4 mps 735 mmHg 78%
    16:00 -2°C° 0 mm 4 mps 735 mmHg 83%
    17:00 -2°C° 0 mm 4 mps 736 mmHg 84%
    18:00 -3°C° 0 mm 4 mps 736 mmHg 85%
    19:00 -3°C° 0 mm 4 mps 736 mmHg 86%
    20:00 -3°C° 0 mm 4 mps 737 mmHg 87%
    21:00 -2°C° 0 mm 3 mps 737 mmHg 88%
    22:00 -1°C° 0 mm 3 mps 738 mmHg 90%
    23:00 -1°C° 0 mm 3 mps 738 mmHg 90%

    28 February, Friday

    Time Temperature Precipitation Wind Pressure Humidity
    00:00 -2°C° 0 mm 3 mps 738 mmHg 90%
    01:00 -2°C° 0 mm 3 mps 738 mmHg 90%
    02:00 -2°C° 0 mm 3 mps 739 mmHg 90%
    03:00 -2°C° 0 mm 3 mps 739 mmHg 91%
    04:00 -2°C° 0 mm 3 mps 739 mmHg 91%
    05:00 -2°C° 0 mm 3 mps 739 mmHg 91%
    06:00 -2°C° 0 mm 3 mps 739 mmHg 91%
    07:00 -1°C° 0 mm 3 mps 740 mmHg 91%
    08:00 -1°C° 0.1 mm 3 mps 740 mmHg 90%
    09:00 0°C° 0.1 mm 3 mps 740 mmHg 90%
    10:00 -1°C° 0.1 mm 4 mps 740 mmHg 90%
    11:00 0°C° 0 mm 4 mps 740 mmHg 90%
    12:00 +1°C° 0 mm 3 mps 740 mmHg 90%
    13:00 +2°C° 0 mm 3 mps 741 mmHg 89%
    14:00 +2°C° 0 mm 3 mps 741 mmHg 90%
    15:00 +3°C° 0 mm 2 mps 741 mmHg 90%
    16:00 +2°C° 0 mm 2 mps 741 mmHg 90%
    17:00 +1°C° 0 mm 2 mps 742 mmHg 89%
    18:00 -1°C° 0 mm 2 mps 742 mmHg 89%
    19:00 -2°C° 0 mm 2 mps 742 mmHg 89%
    20:00 -2°C° 0 mm 2 mps 742 mmHg 89%
    21:00 -2°C° 0 mm 2 mps 743 mmHg 89%
    22:00 -3°C° 0 mm 2 mps 743 mmHg 89%
    23:00 -3°C° 0 mm 2 mps 743 mmHg 88%

    29 February, Saturday

    Time Temperature Precipitation Wind Pressure Humidity
    00:00 -3°C° 0 mm 2 mps 743 mmHg 88%
    01:00 -2°C° 0 mm 2 mps 743 mmHg 87%
    02:00 -3°C° 0 mm 2 mps 743 mmHg 87%
    03:00 -3°C° 0 mm 2 mps 743 mmHg 86%
    04:00 -4°C° 0 mm 2 mps 743 mmHg 85%
    05:00 -5°C° 0 mm 3 mps 742 mmHg 81%
    06:00 -4°C° 0 mm 3 mps 742 mmHg 78%
    07:00 -4°C° 0 mm 4 mps 742 mmHg 74%
    08:00 -3°C° 0 mm 4 mps 742 mmHg 70%
    09:00 -2°C° 0 mm 5 mps 742 mmHg 66%
    10:00 -2°C° 0 mm 6 mps 741 mmHg 62%
    11:00 -2°C° 0 mm 6 mps 742 mmHg 64%
    12:00 -2°C° 0 mm 6 mps 742 mmHg 65%
    13:00 -2°C° 0 mm 6 mps 742 mmHg 66%
    14:00 -2°C° 0 mm 6 mps 742 mmHg 68%
    15:00 -3°C° 0 mm 6 mps 742 mmHg 71%
    16:00 -2°C° 0 mm 5 mps 742 mmHg 73%
    17:00 -4°C° 0 mm 5 mps 742 mmHg 77%
    18:00 -4°C° 0 mm 4 mps 742 mmHg 80%
    19:00 -5°C° 0 mm 4 mps 742 mmHg 84%
    20:00 -5°C° 0 mm 4 mps 742 mmHg 86%
    21:00 -5°C° 0 mm 3 mps 742 mmHg 87%
    22:00 -6°C° 0 mm 3 mps 742 mmHg 89%
    23:00 -5°C° 0 mm 2 mps 742 mmHg 90%
    Show more